Agadir Al Massira, Morocco

2:01 AM WEST on September 23, 2017 (GMT +0100)
Agadir Al Massira

Weather History for GMAD - November, 2012

Change the Weather History Date:

Saturday, November 24, 2012

  Actual Average Record
Temperature  
Mean Temperature 66 °F -  
Max Temperature 83 °F - - ()
Min Temperature 50 °F - - ()
Cooling Degree Days 2    
Growing Degree Days 16 (Base 50)    
Moisture  
Dew Point 48 °F    
Average Humidity 64    
Maximum Humidity 88    
Minimum Humidity 14    
Precipitation  
Precipitation 0.00 in - - ()
Sea Level Pressure  
Sea Level Pressure 30.05 in    
Wind  
Wind Speed 5 mph ()    
Max Wind Speed 12 mph    
Max Gust Speed -    
Visibility 6.0 miles    
Events      
T = Trace of Precipitation, MM = Missing Value Source: Averaged Metar Reports

Daily Weather History Graph

Daily Weather History Graph

Search for Another Location

Airport or City:

Trip Planner

Search our weather history database for the weather conditions in past years. The results will help you decide how hot, cold, wet, or windy it might be!

Date:

Astronomy

Nov. 24, 2012 Rise Set
Actual Time 7:11 AM WET 5:37 PM WET
Civil Twilight 6:45 AM WET 6:03 PM WET
Nautical Twilight 6:15 AM WET 6:32 PM WET
Astronomical Twilight 5:47 AM WET 7:01 PM WET
Moon 3:04 PM WET (11/24) 3:28 AM WET (11/24)
Length of Visible Light 11h 18m
Length of Day
10h 26m
Waxing Gibbous, 85% of the Moon is Illuminated
Nov 24
Waxing Gibbous
Nov 28
Full
Dec 6
Last Quarter
Dec 13
New
Dec 20
First Quarter

Hourly Weather History & Observations

Time (WET) Temp. Dew Point Humidity Pressure Visibility Wind Dir Wind Speed Gust Speed Precip Events Conditions
12:00 AM 55 °F 50 °F 79% 30.09 in 6 mi ENE 2.3 mph - -  
12:00 AM 55.4 °F 50.0 °F 82% 30.06 in - NE 2.3 mph - N/A   Clear
1:00 AM 53.6 °F 48.2 °F 82% 30.06 in - East 4.6 mph - N/A   Clear
2:00 AM 53.6 °F 50.0 °F 88% 30.04 in - East 5.8 mph - N/A   Clear
3:00 AM 52 °F 47 °F 79% 30.06 in 6 mi East 5.8 mph - -  
3:00 AM 51.8 °F 48.2 °F 88% 30.04 in - East 5.8 mph - N/A   Clear
4:00 AM 51.8 °F 48.2 °F 88% 30.04 in - ENE 5.8 mph - N/A   Clear
5:00 AM 51.8 °F 48.2 °F 88% 30.04 in - ENE 6.9 mph - N/A   Clear
6:00 AM 53 °F 47 °F 75% 30.06 in 6 mi ENE 10.4 mph - -  
6:00 AM 53.6 °F 48.2 °F 82% 30.04 in - ENE 10.4 mph - N/A   Clear
7:00 AM 55.4 °F 48.2 °F 77% 30.06 in - ENE 10.4 mph - N/A   Clear
8:00 AM 55.4 °F 48.2 °F 77% 30.06 in - ENE 8.1 mph - N/A   Unknown
9:00 AM 62 °F 49 °F 52% 30.08 in 6 mi East 9.2 mph - -  
9:00 AM 60.8 °F 48.2 °F 63% 30.06 in 6.2 mi East 9.2 mph - N/A   Unknown
10:00 AM 66.2 °F 50.0 °F 56% 30.09 in - ENE 11.5 mph - N/A   Clear
11:00 AM 69.8 °F 50.0 °F 49% 30.09 in - ENE 9.2 mph - N/A   Clear
12:00 PM - - %  in 6 mi Calm Calm - -   Clear
12:00 PM - - N/A% 0.00 in - North - - N/A   Clear
1:00 PM 77.0 °F 46.4 °F 34% 30.04 in - ENE 4.6 mph - N/A   Clear
3:00 PM 83 °F 42 °F 14% 30.01 in 6 mi Calm Calm - -   Partly Cloudy
3:00 PM 82.4 °F 42.8 °F 25% 30.01 in 6.2 mi Calm Calm - N/A   Scattered Clouds
4:00 PM - - N/A% 0.00 in - North - - N/A   Clear
5:00 PM 73.4 °F 51.8 °F 47% 30.01 in - WNW 6.9 mph - N/A   Clear
6:00 PM 71 °F 47 °F 31% 30.01 in 6 mi West 3.5 mph - -   Partly Cloudy
6:00 PM 71.6 °F 46.4 °F 41% 30.01 in - West 3.5 mph - N/A   Clear
7:00 PM 66.2 °F 51.8 °F 60% 30.01 in - SSE 2.3 mph - N/A   Clear
8:00 PM - - N/A% 0.00 in - North - - N/A   Clear
9:00 PM 62 °F 50 °F 56% 30.06 in 6 mi SSE 4.6 mph - -   Partly Cloudy
9:00 PM 62.6 °F 50.0 °F 63% 30.04 in - SSE 4.6 mph - N/A   Clear
10:00 PM 60.8 °F 48.2 °F 63% 30.04 in - SE 1.2 mph - N/A   Clear
11:00 PM 55.4 °F 50.0 °F 82% 30.04 in - ENE 3.5 mph - N/A   Clear